Location: Newark
(21.1200°N, 73.4000°E)
Time: 22:08:46
(UTC+00:00)

Vanguard 1 Rocket - Pass Details

Date: 27 January 2020
Orbit: 650 x 4226 km, 34.3° (Epoch: 19 February)

Event Time Altitude Azimuth Distance (km) Brightness Sun altitude
Rises 12:38:54 0° 288° (WNW) 7,221 12.9 2.3°
Reaches altitude 10° 12:43:50 10° 281° (W) 6,589 12.9 1.2°
Maximum altitude 13:04:15 38° 222° (SW) 5,401 12.0 -3.3°
Drops below altitude 10° 13:25:59 10° 162° (SSE) 6,835 11.8 -8.1°
Sets 13:31:28 0° 153° (SSE) 7,483 12.0 -9.3°
